RH
6 6 6 5 4 4 5 5 4 5 7 18 8 6 4 5 5 4 4 5 6 6 6 6 10 12 17 22 23 26 23 26 21 20 27 28 27 25 23 29 32 28 16 10
6 6 6 5 6 6 6 5 4 7 22 29 33 4 5 5 4 4 4 5 6 6 6 7 17 19 18 21 20 25 28 19 17 17 24 26 27 25 22 25 29 30 16 12
6 6 7 6 6 6 6 5 5 6 10 10 12 4 4 5 5 4 4 6 6 6 6 9 19 14 17 20 20 19 26 28 24 17 21 23 26 25 22 25 26 31 19 14
6 6 6 7 6 6 5 7 6 7 7 5 10 5 4 5 5 4 4 6 6 6 5 6 13 11 15 20 20 21 25 26 24 24 22 22 25 23 22 20 20 29 20 12
5 6 6 7 6 7 5 10 10 8 8 7 6 6 3 5 4 5 5 6 6 6 5 5 8 9 15 16 19 21 23 24 23 22 22 22 22 24 22 21 23 29 22 13
6 6 6 6 7 7 7 10 10 11 9 7 3 5 4 4 4 5 5 4 5 6 5 4 5 5 10 14 16 19 22 23 22 22 21 22 22 24 24 23 28 34 26 13
6 6 6 6 7 7 7 8 7 8 10 3 4 10 4 4 5 5 4 4 4 5 5 5 4 4 5 10 11 18 23 22 21 21 22 24 25 24 27 23 26 35 29 15
10 7 6 5 5 6 7 7 7 5 5 4 10 6 4 4 16 10 4 4 4 6 5 5 4 4 5 6 9 14 21 20 18 20 24 23 28 27 30 30 33 40 38 30
46 14 7 7 6 6 6 22 6 10 8 9 9 7 6 10 10 8 4 4 5 5 4 4 4 4 4 4 8 10 18 18 19 23 25 28 28 34 36 35 35 45 43 43
71 66 27 8 8 11 8 7 16 30 12 7 4 4 4 20 34 31 17 9 5 5 4 4 4 4 4 4 7 9 17 20 22 22 26 29 33 39 49 48 48 48 56 59
9 52 80 63 43 9 9 7 14 28 20 10 4 4 4 5 14 13 5 4 3 4 4 3 4 3 3 4 5 8 18 21 20 26 25 30 39 48 48 46 57 61 62 60
8 9 31 93 76 45 38 12 16 15 6 6 7 6 8 6 5 16 15 5 4 4 3 3 3 3 3 4 5 10 20 19 18 29 31 38 49 44 41 43 51 57 60 67
14 16 14 28 92 95 90 56 16 11 7 10 9 6 8 9 11 11 9 7 6 4 4 4 4 3 3 3 5 14 18 16 17 22 32 37 47 52 51 47 53 68 73 80
99 49 46 25 9 65 99 67 42 46 33 10 9 5 6 6 7 8 9 8 8 6 6 5 4 3 3 3 4 13 15 14 21 23 32 41 46 52 65 60 59 69 80 90
91 99 77 39 27 38 79 92 76 58 52 38 14 10 6 6 6 6 6 6 6 5 4 4 4 3 3 4 8 13 13 18 31 31 30 45 47 59 73 70 71 72 84 89
100 96 100 100 25 30 57 50 43 82 100 92 51 22 14 8 6 5 6 5 4 4 4 4 4 4 7 7 11 11 17 32 36 34 43 48 56 69 78 80 77 78 82 84
100 96 77 98 55 25 80 78 67 34 58 57 67 47 28 27 10 6 6 6 5 5 4 4 4 5 6 8 11 19 32 36 39 42 47 56 71 76 79 85 86 85 81 76
97 100 100 95 83 100 45 20 26 58 83 66 56 40 45 35 18 8 8 6 6 6 6 6 9 10 8 16 27 39 37 44 47 44 60 70 81 84 82 85 84 76 74 90
98 98 92 100 82 70 70 60 60 39 24 14 11 14 35 52 47 26 24 17 11 10 12 12 15 19 31 32 37 40 50 47 45 53 72 92 100 97 91 89 93 95 97 97
100 99 99 100 90 77 52 41 47 49 69 32 48 43 8 28 62 41 46 29 18 16 17 18 20 25 32 42 46 48 52 54 54 78 90 90 94 100 98 98 97 98 100 100
100 99 100 98 93 78 47 38 48 79 43 16 23 39 36 40 41 36 50 55 56 51 47 46 52 53 48 41 36 38 43 55 59 62 81 84 91 98 98 91 86 98 98 97
98 99 100 90 98 96 45 38 47 29 37 44 46 40 48 50 46 33 30 43 50 48 52 56 50 41 31 28 36 41 49 55 60 78 85 85 88 94 96 98 96 99 98 98
98 93 99 74 37 21 31 60 55 81 88 69 56 52 54 50 44 41 48 53 48 44 47 35 20 27 34 44 51 56 62 80 86 88 88 94 96 99 98 99 97 97 97 75
78 98 98 100 86 88 67 87 87 99 100 84 85 47 42 36 35 32 38 43 41 42 32 23 20 35 51 62 64 76 78 68 75 95 100 99 98 99 99 100 98 98 100 93
100 100 100 99 94 73 100 98 91 100 98 83 83 84 88 59 50 62 58 47 38 36 30 31 33 50 66 70 73 73 71 82 95 89 90 94 98 98 100 94 92 95 96 100
99 66 100 99 72 94 96 100 100 100 90 83 92 88 87 88 52 54 57 50 47 46 53 46 57 74 80 78 77 77 84 82 84 90 98 99 100 100 100 100 100 98 95 98
Wind_Speed
59 56 54 44 42 41 39 40 39 37 37 42 48 45 41 42 40 34 32 29 26 25 27 24 22 23 24 25 26 29 36 29 23 23 27 31 31 30 25 24 20 21 20 18
63 63 53 47 46 44 42 43 41 42 39 38 45 46 39 42 37 35 31 31 28 26 27 26 23 23 24 25 27 28 28 35 28 25 27 30 31 31 28 27 23 23 24 25
65 58 55 52 51 47 45 44 42 46 45 50 53 51 42 39 37 36 32 30 30 27 27 29 28 25 26 29 28 28 28 29 35 33 31 30 30 30 31 29 27 28 27 28
67 61 60 57 56 50 47 43 44 47 51 53 51 54 47 40 38 37 33 30 30 29 29 30 34 31 26 30 29 30 32 33 36 36 35 33 32 31 31 33 30 30 29 30
73 68 64 62 59 54 49 46 48 50 52 53 53 57 46 41 37 35 36 29 30 30 32 33 34 36 31 30 34 35 36 37 37 36 37 34 36 31 32 31 29 31 32 31
73 68 68 62 60 59 54 53 53 51 52 59 49 54 52 44 38 35 37 34 31 32 36 35 37 34 38 33 35 39 40 40 40 38 36 34 37 33 32 30 30 32 34 34
76 76 72 68 67 63 60 57 56 56 59 58 49 55 53 40 42 38 42 38 33 34 36 38 38 37 39 37 39 41 43 44 43 43 38 35 36 36 33 34 32 32 34 35
76 78 77 72 72 70 68 65 63 59 61 57 52 56 53 40 32 42 47 39 39 36 32 37 38 37 39 39 41 44 45 48 46 43 39 37 36 36 37 34 33 33 34 36
78 80 74 71 70 73 72 66 62 62 60 58 55 56 50 46 43 49 51 43 41 44 35 36 39 40 39 41 43 42 46 45 46 44 42 39 36 36 37 37 36 36 36 38
76 77 73 73 69 72 75 66 65 59 65 65 64 58 58 35 29 39 48 48 48 45 42 38 39 42 42 43 44 43 46 44 43 45 43 39 39 38 39 39 40 40 40 39
70 75 82 72 66 75 77 77 69 62 66 66 67 66 61 52 45 54 61 60 53 47 44 44 41 45 43 44 44 45 47 46 45 43 45 41 38 41 41 41 40 40 39 37
72 73 78 84 77 76 66 76 67 70 76 73 68 71 55 55 57 52 56 60 55 52 51 49 50 51 45 45 45 46 50 48 48 46 44 39 36 40 45 45 44 43 41 40
72 74 77 80 77 48 57 73 74 71 74 73 70 72 60 57 55 53 53 59 60 58 57 53 55 54 49 48 45 47 51 51 52 51 50 46 37 39 44 47 46 45 44 44
48 70 75 81 82 82 61 75 86 72 67 73 73 73 68 56 56 55 55 55 58 58 60 58 59 57 54 51 47 50 52 52 55 55 52 48 43 42 44 47 47 49 49 49
58 56 62 77 74 74 75 82 88 81 74 72 71 66 61 56 52 57 56 56 55 60 63 63 59 58 56 53 54 52 53 56 61 62 58 51 44 44 45 48 50 51 50 50
53 59 62 61 77 74 72 77 81 77 74 75 72 73 68 58 52 51 56 58 59 62 65 64 58 54 53 56 56 57 57 62 66 63 62 57 46 44 45 47 50 50 50 53
61 58 66 68 68 74 74 72 75 83 78 77 75 73 68 71 58 53 53 58 63 65 66 66 64 56 57 56 59 63 66 68 68 66 62 52 46 47 49 49 50 52 54 53
66 66 60 72 65 74 78 76 76 75 72 69 71 66 69 71 61 55 54 56 58 62 67 66 58 62 65 56 66 72 71 68 66 60 51 50 48 48 50 53 54 55 53 57
67 62 65 64 71 72 70 67 70 76 80 77 74 69 67 57 62 65 68 65 65 64 65 60 67 75 76 70 74 71 67 63 59 55 50 46 47 50 51 51 55 58 59 59
65 66 72 60 74 78 72 61 59 55 71 65 60 62 66 55 54 59 60 64 65 63 62 66 72 74 76 72 69 66 63 60 57 51 50 50 50 53 56 56 56 59 64 64
71 72 75 74 74 77 68 60 56 68 71 68 65 61 61 63 60 60 61 60 65 68 69 70 71 71 66 61 66 69 68 64 60 57 52 50 48 50 51 53 58 67 72 70
64 69 71 73 71 73 47 63 67 61 58 61 60 60 57 64 66 64 62 57 56 56 60 61 60 59 62 64 65 66 62 60 57 54 52 52 50 51 54 57 57 60 64 66
62 62 62 67 63 53 51 48 51 53 54 60 61 61 61 62 62 59 59 59 60 60 62 62 62 62 63 62 60 58 53 50 50 50 49 50 52 49 54 58 62 66 65 62
53 48 44 73 72 45 29 47 54 55 56 51 53 62 65 64 65 65 67 68 65 64 64 64 61 61 60 57 56 53 51 52 51 49 49 50 51 53 57 61 65 68 73 74
46 44 43 48 44 40 39 47 50 55 63 56 58 57 61 55 52 53 57 60 59 63 64 62 61 60 58 55 52 53 53 51 46 44 45 49 53 58 62 64 67 70 74 76
38 60 54 52 53 55 49 44 47 52 55 57 57 56 55 56 56 57 61 61 61 61 64 62 58 52 49 50 49 48 46 47 49 51 51 52 57 63 64 67 69 74 76 78
Wind_Direction
231 230 232 230 234 237 237 240 241 244 244 254 252 252 249 250 252 250 252 257 260 267 272 280 289 292 305 307 314 304 305 300 296 299 308 300 301 297 297 282 259 244 239 246
231 233 233 231 232 234 234 235 236 235 223 236 251 250 246 249 250 252 257 259 261 262 270 277 288 299 302 308 309 316 308 302 302 302 306 302 298 297 292 280 268 245 239 242
234 236 234 233 235 235 234 236 235 237 238 243 252 252 247 250 250 249 251 254 261 263 268 273 283 297 305 307 311 309 314 311 309 304 302 301 293 288 284 278 266 248 239 243
233 232 234 232 235 237 238 240 240 238 239 242 248 254 248 243 249 251 250 253 259 263 266 270 278 292 306 302 306 307 310 310 310 312 303 301 289 283 284 278 274 258 247 242
230 231 230 232 233 235 238 238 240 241 241 245 244 253 246 246 244 255 257 249 260 263 263 265 272 284 296 298 300 307 311 311 310 302 303 297 292 281 278 276 270 260 251 247
231 232 232 232 236 236 234 237 239 241 245 245 242 250 246 247 249 253 254 261 260 256 262 264 268 277 282 293 297 304 306 309 311 305 299 290 285 280 273 271 263 259 252 250
230 231 232 230 233 235 236 237 239 240 241 242 243 250 248 246 258 256 262 256 263 262 260 266 272 275 277 288 294 300 305 308 307 308 306 292 284 277 268 263 263 260 255 254
233 234 230 230 233 237 236 238 237 240 242 245 250 245 248 253 258 259 251 259 266 264 263 263 266 267 272 278 286 296 304 306 307 304 304 298 290 283 267 261 258 256 257 258
233 236 237 237 239 240 238 238 239 243 242 244 245 247 249 251 249 259 263 261 264 272 268 267 268 270 269 273 280 290 300 304 305 306 304 299 289 280 266 260 256 255 256 256
234 240 240 240 238 243 241 243 243 237 241 243 243 244 247 246 262 262 263 264 265 267 272 270 269 270 270 272 278 285 296 300 307 304 304 299 288 280 266 260 258 256 255 258
232 234 236 241 239 240 244 238 238 246 247 245 246 246 246 248 247 257 261 264 264 265 271 271 271 270 270 271 277 283 293 297 303 305 301 302 291 283 275 264 261 259 259 262
232 236 236 234 241 244 250 249 246 246 248 248 249 247 248 247 250 249 257 266 271 272 270 272 273 272 272 272 278 282 295 297 302 306 305 300 295 284 279 273 264 263 263 264
235 234 236 235 230 226 238 249 246 246 249 249 251 248 247 252 255 257 263 268 271 273 274 275 276 276 277 280 281 287 292 294 300 303 306 301 289 282 278 275 270 266 266 267
238 237 238 238 237 239 229 241 244 248 245 249 248 247 251 252 258 260 262 266 268 271 272 274 276 279 282 282 281 288 288 292 297 299 304 299 291 281 273 270 268 266 266 266
220 241 245 238 234 238 238 244 246 246 253 254 257 256 252 257 260 266 265 264 266 270 272 272 275 280 280 282 284 284 286 292 297 297 298 298 290 279 273 269 266 264 265 266
226 226 234 244 238 236 238 239 246 251 253 254 250 249 246 248 251 255 264 269 269 269 268 271 273 276 279 281 281 285 290 294 294 294 296 296 288 274 268 268 266 264 265 266
229 230 236 236 243 241 232 228 238 246 249 252 254 248 250 249 252 254 256 265 270 272 276 276 276 279 277 278 282 287 291 291 292 293 294 287 279 271 267 263 263 264 266 269
215 226 229 230 237 235 242 239 239 240 248 252 252 252 251 250 252 252 253 257 259 267 271 276 282 279 278 279 285 288 289 290 290 290 286 280 276 270 269 268 266 266 267 272
223 225 228 230 236 242 240 235 234 239 246 253 257 253 252 255 254 252 256 255 260 261 264 269 268 272 278 283 284 285 287 287 286 285 285 283 273 269 269 270 271 271 272 273
215 217 223 230 233 239 241 236 236 240 245 243 249 257 256 250 254 253 249 250 252 258 264 266 271 276 279 281 280 280 282 282 283 283 278 277 277 275 275 275 275 277 273 267
214 216 222 228 236 242 242 237 240 240 244 247 247 244 249 252 251 251 253 257 257 260 266 270 271 271 273 275 279 279 279 279 278 278 276 274 272 271 275 277 275 279 279 269
214 219 222 230 232 242 251 240 237 250 250 244 240 242 239 247 253 256 256 260 261 263 264 266 270 272 274 275 275 277 278 278 277 273 271 271 272 273 277 270 273 274 275 279
227 224 229 229 254 265 253 240 236 242 248 249 245 244 243 246 250 254 257 259 261 262 263 268 273 274 275 275 275 274 273 271 271 270 270 271 275 272 267 268 273 272 276 281
208 226 231 237 240 230 230 239 241 239 232 237 236 253 254 253 252 254 255 257 259 263 267 269 272 273 273 272 270 267 268 273 271 271 270 271 271 273 269 270 271 273 276 279
228 241 240 229 235 249 232 236 236 241 242 248 248 250 255 257 256 256 256 259 262 264 267 268 268 269 267 266 264 264 266 267 264 265 267 267 269 270 271 271 272 275 278 279
209 224 232 234 248 248 242 239 234 238 239 241 243 244 248 252 257 258 260 263 263 263 264 265 264 260 257 257 260 261 260 260 261 264 268 270 270 274 271 271 273 278 281 282